| time (UTC) | temp C | wind direction | speed KPH | gust KPH | rain 1hr cm | rain 24hr cm | rain mn cm | humidity % | barometer mb |
| 20260508004522 | 17 | 103 | 16.1 | 22.5 | 0.00 | 0.00 | 0.00 | 88 | 1015.4 |
| 20260508003010 | 17 | 107 | 16.1 | 19.3 | 0.00 | 0.00 | 0.00 | 88 | 1015.3 |
| 20260508001515 | 17 | 115 | 14.5 | 19.3 | 0.00 | 0.00 | 0.00 | 88 | 1015.4 |
| 20260508000009 | 17 | 132 | 12.9 | 17.7 | 0.00 | 0.00 | 0.00 | 85 | 1015.4 |
| 20260507234508 | 17 | 125 | 12.9 | 17.7 | 0.00 | 0.00 | 0.00 | 85 | 1015.5 |
| 20260507233005 | 17 | 132 | 11.3 | 17.7 | 0.00 | 0.03 | 0.00 | 86 | 1015.5 |
| 20260507231503 | 17 | 127 | 12.9 | 17.7 | 0.00 | 0.03 | 0.00 | 87 | 1015.7 |
| 20260507230002 | 17 | 130 | 12.9 | 17.7 | 0.00 | 0.03 | 0.00 | 86 | 1015.6 |
| 20260507224602 | 17 | 132 | 14.5 | 17.7 | 0.00 | 0.03 | 0.00 | 87 | 1015.6 |
| 20260507223102 | 17 | 127 | 14.5 | 17.7 | 0.00 | 0.03 | 0.00 | 87 | 1015.5 |
| 20260507221557 | 17 | 118 | 14.5 | 17.7 | 0.00 | 0.03 | 0.00 | 87 | 1015.5 |
| 20260507220058 | 17 | 122 | 14.5 | 17.7 | 0.00 | 0.03 | 0.00 | 86 | 1015.2 |
| 20260507214617 | 17 | 123 | 12.9 | 16.1 | 0.00 | 0.03 | 0.00 | 86 | 1015.3 |
| 20260507213107 | 17 | 124 | 12.9 | 16.1 | 0.00 | 0.03 | 0.00 | 86 | 1015.3 |
| 20260507211653 | 17 | 106 | 11.3 | 14.5 | 0.00 | 0.03 | 0.00 | 86 | 1015.3 |
| 20260507210056 | 17 | 113 | 9.7 | 12.9 | 0.00 | 0.03 | 0.00 | 85 | 1015.4 |
| 20260507204601 | 17 | 129 | 11.3 | 14.5 | 0.00 | 0.03 | 0.00 | 83 | 1015.4 |
| 20260507203059 | 17 | 134 | 11.3 | 14.5 | 0.00 | 0.08 | 0.00 | 84 | 1015.5 |
| 20260507201549 | 17 | 146 | 11.3 | 14.5 | 0.00 | 0.08 | 0.00 | 83 | 1015.6 |
| 20260507200047 | 17 | 137 | 12.9 | 14.5 | 0.00 | 0.08 | 0.00 | 83 | 1015.6 |
| 20260507194615 | 17 | 140 | 12.9 | 16.1 | 0.00 | 0.08 | 0.00 | 83 | 1015.4 |
| 20260507193146 | 17 | 141 | 12.9 | 16.1 | 0.00 | 0.13 | 0.00 | 83 | 1015.4 |
| 20260507191544 | 17 | 143 | 14.5 | 19.3 | 0.00 | 0.13 | 0.00 | 83 | 1015.2 |
| 20260507190039 | 17 | 146 | 17.7 | 20.9 | 0.00 | 0.13 | 0.00 | 83 | 1015.1 |
| 20260507184540 | 17 | 143 | 16.1 | 20.9 | 0.00 | 0.13 | 0.00 | 84 | 1015.2 |
| 20260507183039 | 17 | 139 | 16.1 | 22.5 | 0.00 | 0.38 | 0.00 | 83 | 1014.9 |
| 20260507181536 | 17 | 133 | 17.7 | 24.1 | 0.00 | 0.38 | 0.00 | 79 | 1014.8 |
| 20260507180038 | 17 | 139 | 16.1 | 20.9 | 0.00 | 0.38 | 0.00 | 77 | 1014.7 |
| 20260507174541 | 18 | 138 | 17.7 | 22.5 | 0.00 | 0.38 | 0.00 | 73 | 1014.5 |
| 20260507173131 | 18 | 134 | 16.1 | 20.9 | 0.00 | 0.41 | 0.00 | 73 | 1014.5 |
| 20260507171529 | 18 | 141 | 17.7 | 20.9 | 0.00 | 0.41 | 0.00 | 70 | 1014.5 |
| 20260507170029 | 18 | 138 | 17.7 | 20.9 | 0.00 | 0.41 | 0.00 | 72 | 1014.3 |
| 20260507164526 | 18 | 130 | 14.5 | 17.7 | 0.00 | 0.41 | 0.00 | 69 | 1014.4 |
| 20260507163025 | 18 | 112 | 14.5 | 17.7 | 0.00 | 0.43 | 0.00 | 67 | 1014.2 |
| 20260507161527 | 18 | 117 | 14.5 | 17.7 | 0.00 | 0.43 | 0.00 | 66 | 1014.1 |
| 20260507160025 | 18 | 110 | 14.5 | 17.7 | 0.00 | 0.43 | 0.00 | 67 | 1014.1 |
| 20260507154530 | 18 | 112 | 12.9 | 17.7 | 0.00 | 0.43 | 0.00 | 68 | 1014.0 |
| 20260507153035 | 18 | 108 | 12.9 | 17.7 | 0.00 | 0.48 | 0.00 | 68 | 1014.2 |
| 20260507151521 | 18 | 124 | 12.9 | 16.1 | 0.00 | 0.48 | 0.00 | 68 | 1014.3 |
| 20260507150021 | 18 | 124 | 14.5 | 19.3 | 0.00 | 0.48 | 0.00 | 70 | 1014.3 |
| 20260507144550 | 18 | 119 | 16.1 | 20.9 | 0.00 | 0.48 | 0.00 | 65 | 1014.3 |
| 20260507143100 | 18 | 120 | 14.5 | 20.9 | 0.00 | 0.48 | 0.00 | 69 | 1014.4 |
| 20260507141548 | 18 | 128 | 14.5 | 19.3 | 0.00 | 0.48 | 0.00 | 69 | 1014.5 |
| 20260507140046 | 18 | 120 | 16.1 | 19.3 | 0.00 | 0.48 | 0.00 | 68 | 1014.4 |
| 20260507134546 | 18 | 111 | 12.9 | 16.1 | 0.00 | 0.48 | 0.00 | 69 | 1014.4 |
| 20260507133044 | 18 | 103 | 11.3 | 12.9 | 0.00 | 0.48 | 0.00 | 70 | 1014.5 |
| 20260507131558 | 18 | 93 | 9.7 | 12.9 | 0.00 | 0.48 | 0.00 | 71 | 1014.6 |
| 20260507130042 | 18 | 83 | 9.7 | 11.3 | 0.00 | 0.48 | 0.00 | 71 | 1014.6 |
| 20260507124539 | 18 | 80 | 9.7 | 12.9 | 0.00 | 0.48 | 0.00 | 71 | 1014.6 |
| 20260507123039 | 18 | 73 | 11.3 | 12.9 | 0.00 | 0.48 | 0.00 | 71 | 1014.7 |
| 20260507121533 | 18 | 66 | 9.7 | 12.9 | 0.00 | 0.48 | 0.00 | 69 | 1014.7 |
| 20260507120033 | 18 | 68 | 11.3 | 12.9 | 0.00 | 0.48 | 0.00 | 70 | 1014.8 |
| 20260507114531 | 18 | 69 | 9.7 | 12.9 | 0.00 | 0.48 | 0.00 | 72 | 1014.8 |
| 20260507113031 | 18 | 68 | 9.7 | 11.3 | 0.00 | 0.48 | 0.00 | 69 | 1014.8 |
| 20260507111602 | 17 | 68 | 8.0 | 11.3 | 0.00 | 0.48 | 0.00 | 68 | 1014.9 |
| 20260507104557 | 17 | 63 | 8.0 | 11.3 | 0.00 | 0.48 | 0.00 | 69 | 1015.1 |
| 20260507103057 | 17 | 65 | 9.7 | 11.3 | 0.00 | 0.48 | 0.00 | 65 | 1015.1 |
| 20260507101557 | 17 | 61 | 9.7 | 12.9 | 0.00 | 0.48 | 0.00 | 66 | 1015.2 |
| 20260507100055 | 17 | 64 | 8.0 | 9.7 | 0.00 | 0.48 | 0.00 | 65 | 1015.3 |
| 20260507094552 | 17 | 62 | 8.0 | 9.7 | 0.00 | 0.48 | 0.00 | 62 | 1015.3 |
| 20260507093055 | 17 | 68 | 6.4 | 9.7 | 0.00 | 0.48 | 0.00 | 60 | 1015.3 |
| 20260507091550 | 17 | 65 | 6.4 | 9.7 | 0.00 | 0.48 | 0.00 | 59 | 1015.3 |
| 20260507090049 | 17 | 101 | 6.4 | 6.4 | 0.00 | 0.48 | 0.00 | 64 | 1015.2 |
| 20260507084547 | 17 | 79 | 4.8 | 6.4 | 0.00 | 0.48 | 0.00 | 62 | 1015.0 |
| 20260507083044 | 17 | 65 | 6.4 | 8.0 | 0.00 | 0.48 | 0.00 | 62 | 1014.9 |
| 20260507081543 | 17 | 66 | 4.8 | 4.8 | 0.00 | 0.48 | 0.00 | 64 | 1014.8 |
| 20260507080042 | 18 | 86 | 1.6 | 6.4 | 0.00 | 0.48 | 0.00 | 52 | 1014.6 |
| 20260507074539 | 18 | 64 | 3.2 | 6.4 | 0.00 | 0.48 | 0.00 | 53 | 1014.7 |
| 20260507073038 | 18 | 171 | 3.2 | 8.0 | 0.00 | 0.51 | 0.00 | 58 | 1014.6 |
| 20260507073005 | 18 | 184 | 3.2 | 8.0 | 0.00 | 0.51 | 0.00 | 60 | 1014.6 |
| 20260507071558 | 18 | 244 | 1.6 | 8.0 | 0.00 | 0.51 | 0.00 | 59 | 1014.7 |
| 20260507070032 | 17 | 270 | 3.2 | 11.3 | 0.00 | 0.51 | 0.00 | 62 | 1014.7 |
| 20260507064527 | 17 | 268 | 4.8 | 11.3 | 0.00 | 0.51 | 0.00 | 61 | 1014.5 |
| 20260507063057 | 17 | 248 | 4.8 | 9.7 | 0.00 | 0.51 | 0.00 | 65 | 1014.5 |
| 20260507061556 | 16 | 272 | 3.2 | 8.0 | 0.00 | 0.51 | 0.00 | 67 | 1014.3 |
| 20260507060044 | 16 | 241 | 3.2 | 6.4 | 0.00 | 0.51 | 0.00 | 72 | 1014.1 |
| 20260507054541 | 15 | 276 | 3.2 | 8.0 | 0.00 | 0.51 | 0.00 | 73 | 1014.1 |
| 20260507053105 | 15 | 260 | 3.2 | 6.4 | 0.00 | 0.58 | 0.00 | 74 | 1014.0 |
| 20260507051542 | 14 | 257 | 1.6 | 6.4 | 0.00 | 0.58 | 0.00 | 75 | 1013.9 |
| 20260507050036 | 13 | 262 | 1.6 | 6.4 | 0.00 | 0.58 | 0.00 | 77 | 1013.8 |
| 20260507044531 | 12 | 217 | 1.6 | 6.4 | 0.00 | 0.58 | 0.00 | 78 | 1013.4 |
| 20260507043028 | 12 | 212 | 3.2 | 4.8 | 0.00 | 0.58 | 0.00 | 78 | 1013.3 |
| 20260507041528 | 12 | 229 | 1.6 | 4.8 | 0.00 | 0.58 | 0.00 | 79 | 1013.1 |
| 20260507040100 | 12 | 243 | 0.0 | 3.2 | 0.00 | 0.58 | 0.00 | 81 | 1013.0 |
| 20260507034555 | 13 | 225 | 0.0 | 3.2 | 0.00 | 0.58 | 0.00 | 77 | 1013.0 |
| 20260507033051 | 13 | 259 | 1.6 | 6.4 | 0.00 | 0.58 | 0.00 | 76 | 1013.0 |
| 20260507031551 | 13 | 276 | 0.0 | 4.8 | 0.00 | 0.58 | 0.00 | 77 | 1012.8 |
| 20260507030047 | 13 | 266 | 0.0 | 3.2 | 0.00 | 0.58 | 0.00 | 77 | 1012.9 |
| 20260507024545 | 13 | 252 | 0.0 | 6.4 | 0.00 | 0.58 | 0.00 | 76 | 1012.8 |
| 20260507023042 | 13 | 252 | 1.6 | 4.8 | 0.00 | 0.58 | 0.00 | 78 | 1012.9 |
| 20260507021543 | 13 | 279 | 1.6 | 4.8 | 0.00 | 0.58 | 0.00 | 78 | 1013.0 |
| 20260507020041 | 14 | 241 | 0.0 | 4.8 | 0.00 | 0.58 | 0.00 | 78 | 1012.9 |
| 20260507014547 | 14 | 255 | 3.2 | 11.3 | 0.00 | 0.58 | 0.00 | 76 | 1013.0 |
| 20260507013031 | 14 | 262 | 4.8 | 11.3 | 0.00 | 0.58 | 0.48 | 76 | 1012.7 |
| 20260507011538 | 14 | 222 | 4.8 | 12.9 | 0.00 | 0.58 | 0.48 | 78 | 1012.6 |
| 20260507010112 | 14 | 241 | 6.4 | 12.9 | 0.00 | 0.58 | 0.48 | 79 | 1012.6 |